Flag for Austria Weather past 2 weeks in St. Pölten, Lower Austria, Austria

Now
48 °F

Partly sunny.


Feels Like: 42 °F
Forecast: 40 / 46 °F
Wind: 16 mph from West

Location: Tulln Airport

Current Time: Oct 22, 2014 at 4:22:43 PM

Latest Report: Oct 22, 2014 at 3:50 PM


Visibility: 15 mi

Pressure: 29.77 "Hg

Humidity: 66%

Dew point: 37 °F

Location of St. PöltenLocation

Historic Weather in St. Pölten — Graph

°F

St. Pölten temperature yesterday

Maximum temperature yesterday: 63 °F (at 12:50 PM)
Minimum temperature yesterday: 55 °F (at 6:50 AM)
Average temperature yesterday: 58 °F

Past Weeks' High & Low Weather Summary

 TemperatureHumidityPressure
High72 °F (Oct 12, 1:50 PM)100% (Oct 8, 10:50 PM)30.30 "Hg (Oct 8, 10:50 PM)
Low46 °F (Oct 22, 12:50 PM)53% (Oct 14, 3:50 PM)29.56 "Hg (Oct 14, 10:50 PM)
Average59 °F87%29.96 "Hg
* Reported Oct 7 2:50 PM — Oct 22 2:50 PM, St. Pölten, Weather by CustomWeather, © 2014

Note: Actual official high and low records may vary slightly from our data, if they occured in-between our weather recording intervals... More about our weather records

Advertising

St. Pölten weather history for previous 24 hours

 ConditionsComfort  
Time TempWeatherWind HumidityBarometerVisibility
2:50 PM
Oct 22
46 °FBroken clouds.20 mph82%29.74 "Hg12 mi
1:50 PM48 °FSprinkles. Partly sunny.22 mph82%29.74 "Hg16 mi
12:50 PM46 °FSprinkles. Broken clouds.23 mph82%29.74 "Hg19 mi
11:50 AM48 °FPartly sunny.21 mph76%29.77 "Hg19 mi
10:50 AM48 °FBroken clouds.17 mph76%29.74 "Hg19 mi
9:50 AM48 °FPartly sunny.14 mph76%29.74 "Hg19 mi
8:50 AM48 °FPartly sunny.17 mph71%29.74 "Hg16 mi
7:50 AM48 °FPassing clouds.13 mph66%29.74 "Hg16 mi
6:50 AM50 °FPassing clouds.15 mph62%29.74 "Hg16 mi
5:50 AM48 °FPartly cloudy.15 mph76%29.74 "Hg16 mi
10:50 PM
Oct 21
57 °FPartly cloudy.3 mph88%29.62 "Hg16 mi
9:50 PM55 °FPartly cloudy.2 mph94%29.65 "Hg16 mi
8:50 PM55 °FPassing clouds.2 mph100%29.71 "Hg16 mi
7:50 PM57 °FPartly cloudy.1 mph94%29.74 "Hg19 mi
6:50 PM57 °FBroken clouds.3 mph88%29.74 "Hg22 mi
5:50 PM59 °FPartly sunny.7 mph82%29.77 "Hg22 mi
4:50 PM61 °FPartly sunny.10 mph77%29.80 "Hg25 mi
Weather by CustomWeather, © 2014

See weather overviewHow to use our weather pages